Stations météo

Publicité
Bournemouth Airport, Grande-Bretagne (3862): Température de l'air & dewpoint: 04.04.2020 20:00:00 - 10.04.2020 20:00:00 (BST)Bournemouth Airport, Grande-Bretagne (3862): Température de l'air -20cm & Température de l'air -100cm: 04.04.2020 20:00:00 - 10.04.2020 20:00:00 (BST)Bournemouth Airport, Grande-Bretagne (3862): Vitesse du vent: 04.04.2020 20:00:00 - 10.04.2020 20:00:00 (BST)Bournemouth Airport, Grande-Bretagne (3862): Direction du vent: 04.04.2020 20:00:00 - 10.04.2020 20:00:00 (BST)Bournemouth Airport, Grande-Bretagne (3862): reduced air pressure: 04.04.2020 20:00:00 - 10.04.2020 20:00:00 (BST)Bournemouth Airport, Grande-Bretagne (3862): visibility: 04.04.2020 20:00:00 - 10.04.2020 20:00:00 (BST)Bournemouth Airport, Grande-Bretagne (3862): Ensoleillement: 04.04.2020 20:00:00 - 10.04.2020 20:00:00 (BST)Bournemouth Airport, Grande-Bretagne (3862): Quantités de précipitations: 04.04.2020 20:00:00 - 10.04.2020 20:00:00 (BST)
Date & Time tt [°C] td [°C] tt -20cm [°C] tt -100cm [°C] ff [km/h] ff [knt] dd ppp [hPa] vv [km] sd [min] rr [mm]
10.04.2020 20:00:00 - - - - - - - - - - -
10.04.2020 19:00:00 20,2 7,1 - - 9 5 ESE 1021,9 20 60 0,0
10.04.2020 18:00:00 20,8 6,6 - - 13 7 ESE 1022,0 22 60 0,0
10.04.2020 17:00:00 21,2 7,3 - - 15 8 SSE 1022,1 10 60 0,0
10.04.2020 16:00:00 20,2 7,5 - - 15 8 - 1022,3 10 60 0,0
10.04.2020 15:00:00 21,3 8,3 - - 21 11 SSE 1022,8 10 60 0,0
10.04.2020 14:00:00 21,1 8,8 - - 16 9 SSE 1023,1 10 60 0,0
10.04.2020 13:00:00 21,2 9,5 - - 16 9 SSE 1023,6 10 60 0,0
10.04.2020 12:00:00 20,3 8,8 - - 13 7 E 1023,8 10 60 0,0
10.04.2020 11:00:00 19,2 9,1 - - 11 6 E 1024,0 17 60 0,0
10.04.2020 10:00:00 17,1 8,7 11,9 9,7 13 7 E 1024,0 15 60 0,0
10.04.2020 09:00:00 15,8 8,1 - - 13 7 ESE 1023,8 10 48 0,0
10.04.2020 08:00:00 14,0 7,6 - - 11 6 E 1023,9 15 18 0,0
10.04.2020 07:00:00 12,0 7,4 - - 9 5 E 1023,7 11 0 0,0
10.04.2020 06:00:00 12,2 7,4 - - 5 3 E 1023,6 11 0 0,0
10.04.2020 05:00:00 13,0 7,3 - - 9 5 E 1023,3 12 0 0,0
10.04.2020 04:00:00 13,2 7,2 - - 11 6 E 1023,4 13 0 0,0
10.04.2020 03:00:00 13,9 7,0 - - 13 7 E 1023,5 14 0 0,0
10.04.2020 02:00:00 14,2 7,1 - - 15 8 E 1023,8 16 0 0,0
10.04.2020 01:00:00 14,5 7,2 - - 13 7 E 1024,2 15 - 0,0
10.04.2020 00:00:00 14,5 7,5 - - 11 6 E 1024,1 15 0 0,0
09.04.2020 23:00:00 12,9 7,0 - - 8 4 E 1024,1 13 0 0,0
09.04.2020 22:00:00 15,2 8,3 - - 11 6 ESE 1024,1 11 0 0,0
09.04.2020 21:00:00 13,4 5,9 - - 5 3 ESE 1023,7 19 0 0,0
09.04.2020 20:00:00 17,4 6,4 - - 4 2 E 1023,2 22 18 0,0
09.04.2020 19:00:00 20,8 5,8 - - 8 4 ESE 1022,9 17 60 0,0
09.04.2020 18:00:00 21,7 6,9 - - 11 6 SE 1022,8 10 60 0,0
09.04.2020 17:00:00 22,1 6,2 - - 16 9 SSE 1022,9 11 60 0,0
09.04.2020 16:00:00 22,8 6,8 - - 18 10 - 1023,2 10 60 0,0
09.04.2020 15:00:00 22,4 7,1 - - 15 8 SE 1023,6 10 60 0,0
09.04.2020 14:00:00 21,7 7,3 - - 15 8 SE 1023,8 11 60 0,0
09.04.2020 13:00:00 21,1 8,4 - - 18 10 SSE 1024,2 10 60 0,0
09.04.2020 12:00:00 20,7 8,1 - - 15 8 ESE 1024,3 12 60 0,0
09.04.2020 11:00:00 19,2 8,6 - - 13 7 E 1024,3 12 60 0,0
09.04.2020 10:00:00 17,1 10,6 11,2 9,4 8 4 ENE 1024,2 8 60 0,0
09.04.2020 09:00:00 11,5 10,6 - - 2 1 N 1024,1 5 60 0,0
09.04.2020 08:00:00 7,3 6,7 - - 4 2 WNW 1024,0 3,5 48 0,0
09.04.2020 07:00:00 4,3 3,7 - - 4 2 NNW 1023,6 4,1 0 0,0
09.04.2020 06:00:00 4,7 4,0 - - 4 2 NNW 1023,2 4,6 0 0,0
09.04.2020 05:00:00 4,6 3,8 - - 5 3 WNW 1023,3 3,1 0 0,0
09.04.2020 04:00:00 5,3 4,5 - - 5 3 NNW 1023,3 2,8 0 0,0
09.04.2020 03:00:00 5,5 4,4 - - 2 1 SSW 1023,5 4,8 0 0,0
09.04.2020 02:00:00 6,4 5,7 - - 2 1 NNW 1023,7 2,6 0 0,0
09.04.2020 01:00:00 6,9 5,9 - - 2 1 E 1023,8 3,5 - 0,0
09.04.2020 00:00:00 8,0 6,6 - - 2 1 NE 1023,9 3,8 0 0,0
08.04.2020 23:00:00 8,4 7,0 - - 8 4 NE 1023,9 3,1 0 0,0
08.04.2020 22:00:00 10,5 7,8 - - 0 0 N 1023,7 7 0 0,0
08.04.2020 21:00:00 11,0 7,3 - - 2 1 ESE 1023,5 8 0 0,0
08.04.2020 20:00:00 14,6 8,3 - - 4 2 SSE 1023,1 8 36 0,0
08.04.2020 19:00:00 16,4 8,3 - - 9 5 SSE 1022,8 11 60 0,0
08.04.2020 18:00:00 17,5 9,1 - - 9 5 S 1022,8 10 60 0,0
08.04.2020 17:00:00 18,2 9,5 - - 11 6 S 1022,8 10 60 0,0
08.04.2020 16:00:00 17,9 9,7 - - 13 7 S 1022,9 10 60 0,0
08.04.2020 15:00:00 20,3 10,5 - - 16 9 SSE 1023,2 10 60 0,0
08.04.2020 14:00:00 21,2 10,6 - - 11 6 - 1023,3 10 54 0,0
08.04.2020 13:00:00 20,0 9,7 - - 9 5 ENE 1023,7 10 6 0,0
08.04.2020 12:00:00 19,6 10,3 - - 11 6 ENE 1024,0 10 24 0,0
08.04.2020 11:00:00 17,1 7,7 - - 5 3 - 1024,5 10 6 0,0
08.04.2020 10:00:00 15,3 8,2 10,9 9,2 8 4 NE 1024,5 10 0 0,0
08.04.2020 09:00:00 13,4 7,3 - - 8 4 NNE 1024,5 10 0 0,0
08.04.2020 08:00:00 11,4 6,8 - - 9 5 N 1024,5 10 0 0,0
08.04.2020 07:00:00 10,6 5,6 - - 4 2 NNE 1024,2 29 0 0,0
08.04.2020 06:00:00 10,0 4,8 - - 4 2 NNW 1024,3 35 0 0,0
08.04.2020 05:00:00 9,7 5,1 - - 8 4 NNW 1024,5 35 0 0,0
08.04.2020 04:00:00 9,6 4,9 - - 5 3 N 1024,8 35 0 0,0
08.04.2020 03:00:00 9,0 4,9 - - 8 4 NNW 1025,4 30 0 0,0
08.04.2020 02:00:00 9,4 4,6 - - 5 3 N 1025,7 35 0 0,0
08.04.2020 01:00:00 8,7 5,0 - - 5 3 NNW 1026,2 35 - 0,0
08.04.2020 00:00:00 8,6 4,2 - - 4 2 N 1026,4 30 0 0,0
07.04.2020 23:00:00 9,1 4,0 - - 4 2 N 1026,6 40 0 0,0
07.04.2020 22:00:00 10,6 5,3 - - 8 4 ENE 1026,7 45 0 0,0
07.04.2020 21:00:00 11,9 3,8 - - 4 2 E 1027,0 60 0 0,0
07.04.2020 20:00:00 13,2 3,4 - - 4 2 WNW 1026,9 45 0 0,0
07.04.2020 19:00:00 14,3 2,3 - - 2 1 SSW 1026,7 40 0 0,0
07.04.2020 18:00:00 14,7 0,9 - - 4 2 SSW 1027,1 40 0 0,0
07.04.2020 17:00:00 14,9 0,7 - - 9 5 SSE 1027,5 10 0 0,0
07.04.2020 16:00:00 15,1 2,0 - - 15 8 SSE 1028,0 10 6 0,0
07.04.2020 15:00:00 15,9 0,3 - - 13 7 SSE 1028,2 10 48 0,0
07.04.2020 14:00:00 15,8 2,2 - - 16 9 SE 1028,6 50 60 0,0
07.04.2020 13:00:00 15,9 3,5 - - 15 8 SSE 1028,8 10 60 0,0
07.04.2020 12:00:00 15,0 5,2 - - 18 10 SSE 1029,3 10 60 0,0
07.04.2020 11:00:00 14,1 5,8 - - 15 8 SSE 1029,6 29 60 0,0
07.04.2020 10:00:00 12,5 5,8 10,7 9,0 5 3 - 1029,7 10 60 0,0
07.04.2020 09:00:00 6,4 5,2 - - 4 2 N 1029,7 27 60 0,0
07.04.2020 08:00:00 2,9 2,3 - - 0 0 N 1029,7 10 48 0,0
07.04.2020 07:00:00 0,3 -0,4 - - 8 4 N 1029,4 20 0 0,0
07.04.2020 06:00:00 0,5 -0,3 - - 5 3 N 1029,2 19 0 0,0
07.04.2020 05:00:00 1,7 0,8 - - 4 2 WNW 1029,1 19 0 0,0
07.04.2020 04:00:00 1,8 1,0 - - 0 0 N 1028,8 14 0 0,0
07.04.2020 03:00:00 2,5 1,4 - - 4 2 N 1028,4 13 0 0,0
07.04.2020 02:00:00 3,2 1,9 - - 4 2 NNW 1028,2 22 0 0,0
07.04.2020 01:00:00 3,8 2,5 - - 0 0 N 1027,8 17 - 0,0
07.04.2020 00:00:00 5,1 3,1 - - 4 2 NW 1027,3 18 0 0,0
06.04.2020 23:00:00 6,8 4,7 - - 2 1 NNW 1026,7 17 0 0,0
06.04.2020 22:00:00 8,5 5,9 - - 8 4 NW 1026,1 18 0 0,0
06.04.2020 21:00:00 8,0 5,4 - - 11 6 W 1025,3 19 0 0,0
06.04.2020 20:00:00 9,7 5,6 - - 9 5 W 1024,4 22 24 0,0
06.04.2020 19:00:00 13,4 5,8 - - 11 6 WSW 1023,4 28 60 0,0
06.04.2020 18:00:00 14,3 3,3 - - 18 10 WSW 1022,3 45 60 0,0
06.04.2020 17:00:00 15,4 5,8 - - 21 11 WSW 1021,4 30 60 0,0
06.04.2020 16:00:00 15,7 6,7 - - 22 12 WSW 1020,8 10 60 0,0
06.04.2020 15:00:00 15,9 6,8 - - 21 11 WSW 1020,3 10 60 0,0
06.04.2020 14:00:00 15,9 5,2 - - 18 10 SW 1019,4 10 54 0,0
06.04.2020 13:00:00 16,8 4,4 - - 21 11 WSW 1018,6 10 54 0,0
06.04.2020 12:00:00 15,1 3,6 - - 21 11 WNW 1017,9 10 60 0,0
06.04.2020 11:00:00 14,3 7,8 - - 15 8 WNW 1017,1 35 54 0,0
06.04.2020 10:00:00 12,7 8,5 10,4 8,7 15 8 W 1016,0 10 36 0,0
06.04.2020 09:00:00 11,7 9,6 - - 13 7 W 1014,8 10 42 0,0
06.04.2020 08:00:00 10,9 9,9 - - 8 4 WSW 1013,5 10 0 0,0
06.04.2020 07:00:00 11,1 10,2 - - 13 7 W 1012,2 20 0 0,0
06.04.2020 06:00:00 11,4 10,5 - - 5 3 SW 1010,8 19 0 0,2
06.04.2020 05:00:00 11,2 10,3 - - 15 8 SSW 1010,5 3,8 0 0,0
06.04.2020 04:00:00 11,2 9,8 - - 18 10 SSW 1009,8 17 0 0,4
06.04.2020 03:00:00 11,5 9,0 - - 18 10 S 1009,7 13 0 0,0
06.04.2020 02:00:00 12,4 8,9 - - 13 7 S 1009,7 22 0 0,0
06.04.2020 01:00:00 13,7 9,2 - - 18 10 SSW 1009,7 30 - 0,0
06.04.2020 00:00:00 12,6 8,4 - - 22 12 S 1009,7 15 0 0,0
05.04.2020 23:00:00 13,1 8,1 - - 22 12 S 1009,3 30 0 0,0
05.04.2020 22:00:00 13,2 8,0 - - 18 10 S 1009,3 30 0 0,0
05.04.2020 21:00:00 13,9 8,1 - - 18 10 S 1009,5 30 0 0,0
05.04.2020 20:00:00 13,4 7,9 - - 15 8 SSE 1009,2 29 0 0,0
05.04.2020 19:00:00 14,1 7,1 - - 22 12 SSE 1009,2 30 12 0,0
05.04.2020 18:00:00 15,9 6,6 - - 26 14 SSE 1009,2 35 54 0,0
05.04.2020 17:00:00 16,5 6,5 - - 26 14 SSE 1009,4 35 54 0,0
05.04.2020 16:00:00 16,4 7,0 - - 29 16 SSE 1010,0 30 60 0,0
05.04.2020 15:00:00 15,9 7,1 - - 29 16 SE 1010,5 27 60 0,0
05.04.2020 14:00:00 14,6 6,6 - - 28 15 SSE 1011,1 26 54 0,0
05.04.2020 13:00:00 13,7 6,0 - - 26 14 SE 1011,7 26 48 0,0
05.04.2020 12:00:00 14,2 5,7 - - 28 15 SE 1012,0 30 60 0,0
05.04.2020 11:00:00 13,5 6,2 - - 24 13 SE 1012,6 26 60 0,0
05.04.2020 10:00:00 12,5 5,3 9,7 8,7 28 15 SE 1013,0 27 60 0,0
05.04.2020 09:00:00 12,0 5,2 - - 26 14 SE 1013,2 29 60 0,0
05.04.2020 08:00:00 10,9 5,7 - - 18 10 SE 1013,6 26 48 0,0
05.04.2020 07:00:00 10,0 5,2 - - 22 12 SE 1013,7 26 0 0,0
05.04.2020 06:00:00 10,2 4,6 - - 18 10 SE 1013,8 30 0 0,0
05.04.2020 05:00:00 10,6 4,9 - - 22 12 SE 1014,1 30 0 0,0
05.04.2020 04:00:00 10,6 5,0 - - 18 10 SE 1014,7 30 0 0,0
05.04.2020 03:00:00 11,2 4,7 - - 21 11 SE 1015,5 30 0 0,0
05.04.2020 02:00:00 10,0 4,9 - - 11 6 ESE 1016,1 22 0 0,0
05.04.2020 01:00:00 9,7 5,4 - - 13 7 ESE 1016,7 19 - 0,0
05.04.2020 00:00:00 10,1 5,1 - - 15 8 ESE 1017,1 27 0 0,0
04.04.2020 23:00:00 9,6 4,7 - - 11 6 ESE 1017,2 30 0 0,0
04.04.2020 22:00:00 9,1 4,4 - - 8 4 ESE 1017,5 30 0 0,0
04.04.2020 21:00:00 9,5 4,4 - - 8 4 ESE 1017,7 35 0 0,0
04.04.2020 20:00:00 11,0 4,2 - - 9 5 ESE 1017,6 40 36 0,0

tt = Température de l'air
td = dewpoint
tt -20cm = Température de l'air -20cm
tt -100cm = Température de l'air -100cm
ff = Vitesse du vent
dd = Direction du vent
ppp = reduced air pressure
vv = visibility
sd = Ensoleillement
rr = Quantités de précipitations

stations d'obs. à proximité